Location: Overspoor
(51.4747°N, 5.6641°E)
Time: 13:27:20
(UTC+02:00)

NANOSAT C BR1 - Visible Passes

Search period start: 30 June 2022 00:00
Search period end: 10 July 2022 00:00
Orbit: 584 x 601 km, 98.0° (Epoch: 29 June)

Date Brightness Start Highest point End Pass type
(mag) Time Alt. Az. Time Alt. Az. Time Alt. Az.
30 Jun ? 03:03:36 10° NE 03:07:10 26° E 03:10:42 10° SSE visible
01 Jul ? 03:12:12 10° NNE 03:15:57 31° E 03:19:43 10° SSE visible
02 Jul ? 03:20:49 10° NNE 03:24:45 37° E 03:28:37 10° SSE visible
03 Jul ? 03:29:28 10° NNE 03:33:31 45° E 03:37:25 11° S visible
04 Jul ? 03:38:07 10° NNE 03:42:17 55° E 03:46:13 11° S visible
05 Jul ? 03:46:48 10° NNE 03:51:02 67° ESE 03:55:01 11° S visible
06 Jul ? 02:22:51 10° ENE 02:23:30 10° E 02:24:09 10° E visible
06 Jul ? 03:55:31 10° NNE 03:59:45 81° ESE 04:03:48 11° SSW visible
07 Jul ? 02:30:29 10° ENE 02:32:21 13° E 02:34:12 10° ESE visible
07 Jul ? 04:04:14 10° NNE 04:08:28 84° WNW 04:12:36 11° SSW visible
08 Jul ? 02:38:40 10° NE 02:41:10 15° E 02:43:39 10° SE visible
08 Jul ? 04:12:58 10° N 04:17:11 70° WNW 04:21:23 10° SSW visible
09 Jul ? 02:47:02 10° NE 02:49:59 18° E 02:52:55 10° SE visible
09 Jul ? 04:21:42 10° N 04:25:53 58° WNW 04:30:01 10° SSW visible
